User: anonymous   Login
Location: Little Chesterford
(52.0500°N, 0.1833°E)
Time: 20:07:59
(UTC+00:00)
Language:

Feng Yun 1-1 Rocket - Orbit

View from above orbital plane
View from above orbital plane
View from above satellite
View from above satellite

Ground track
Ground track

The orbit data is extracted from the following two-line orbital elements,

1 19468U 88080B   24062.56777819  .00000361  00000-0  25221-3 0  9991
2 19468  99.0804 106.7528 0072292  95.7984  24.1746 14.03642019816811
Epoch (UTC): 02 March 2024 13:37:36
Eccentricity: 0.0072292
inclination: 99.0804°
perigee height: 829 km
apogee height: 933 km
right ascension of ascending node: 106.7528°
argument of perigee: 95.7984°
revolutions per day: 14.03642019
mean anomaly at epoch: 24.1746°
orbit number at epoch: 81681

The dashed part of the orbit path shows where the satellite is in the earth's shadow,  

DLR